This demonstration page uses our WeatherBlox Daily Observations layout. Learn more.

Left ArrowRight Arrow

Hourly Observations for October 20, 2022

Temp ( °F °C ) Dew Point ( °F °C ) Humidity (%) Winds ( mph kmh ) Pressure ( in mb ) Visibility ( mi km ) Precip ( " mm )
12:53 am 00:53 Clear 61 16.1 33 0.6 35 35 Calm 29.96 1015 10 16 0.00 0.00
1:53 am 01:53 Clear 60 15.6 33 0.6 36 36 Calm 29.96 1015 10 16 0.00 0.00
2:53 am 02:53 Clear 55 12.8 33 0.6 43 43 N 3 6 29.96 1015 10 16 0.00 0.00
3:53 am 03:53 Clear 54 12.2 33 0.6 45 45 Calm 29.95 1014 10 16 0.00 0.00
4:53 am 04:53 Clear 53 11.7 33 0.6 46 46 Calm 29.95 1014 10 16 0.00 0.00
5:53 am 05:53 Clear 52 11.1 34 1.1 50 50 Calm 29.95 1014 10 16 0.00 0.00
6:53 am 06:53 Clear 51 10.6 33 0.6 50 50 Calm 29.96 1015 10 16 0.00 0.00
7:53 am 07:53 Sunny 50 10 33 0.6 52 52 Calm 29.98 1015 10 16 0.00 0.00
8:53 am 08:53 Sunny 58 14.4 33 0.6 39 39 Calm 30.00 1016 10 16 0.00 0.00
9:53 am 09:53 undefined 66 18.9 34 1.1 30 30 Calm 30.01 1016 10 16 0.00 0.00
10:53 am 10:53 Sunny 73 22.8 35 1.7 25 25 Calm 29.99 1016 N/A 0.00 0.00
11:53 am 11:53 Sunny 80 26.7 30 -1.1 16 16 SE 3 6 29.97 1015 N/A 0.00 0.00
12:53 pm 12:53 Sunny 82 27.8 29 -1.7 14 14 Calm 29.93 1014 10 16 0.00 0.00
1:53 pm 13:53 Sunny 85 29.4 29 -1.7 13 13 SSE 3 6 29.89 1012 10 16 0.00 0.00
2:53 pm 14:53 Sunny 88 31.1 30 -1.1 12 12 SSW 3 6 29.85 1011 10 16 0.00 0.00
3:53 pm 15:53 Sunny 89 31.7 29 -1.7 12 12 S 3 6 29.83 1010 10 16 0.00 0.00
4:53 pm 16:53 Sunny 90 32.2 25 -3.9 10 10 Calm 29.81 1010 10 16 0.00 0.00
5:53 pm 17:53 Sunny 87 30.6 31 -0.6 13 13 ESE 5 7 29.80 1009 10 16 0.00 0.00
6:53 pm 18:53 Clear 79 26.1 36 2.2 21 21 Calm 29.81 1009 10 16 0.00 0.00
7:53 pm 19:53 Clear 74 23.3 37 2.8 26 26 Calm 29.82 1010 10 16 0.00 0.00
8:53 pm 20:53 Clear 68 20 37 2.8 32 32 NW 3 6 29.83 1010 10 16 0.00 0.00
9:53 pm 21:53 Clear 66 18.9 37 2.8 34 34 Calm 29.84 1011 10 16 0.00 0.00
10:53 pm 22:53 Clear 62 16.7 36 2.2 38 38 Calm 29.85 1011 10 16 0.00 0.00
11:53 pm 23:53 Clear 60 15.6 37 2.8 42 42 Calm 29.85 1011 10 16 0.00 0.00

Powered by AerisWeather